Hurghada, Egypt

9:44 AM EET on September 30, 2016 (GMT +0200)
Hurghada International

Weather History for HEGN - December, 2013

Change the Weather History Date:

Thursday, December 12, 2013

  Actual Average Record
Temperature  
Mean Temperature 55 °F -  
Max Temperature 61 °F 72 °F 89 °F (2014)
Min Temperature 49 °F 57 °F 49 °F (2013)
Degree Days  
Heating Degree Days 10    
Growing Degree Days 5 (Base 50)    
Moisture  
Dew Point 31 °F    
Average Humidity 38    
Maximum Humidity 54    
Minimum Humidity 21    
Precipitation  
Precipitation 0.00 in - - ()
Sea Level Pressure  
Sea Level Pressure 30.01 in    
Wind  
Wind Speed 18 mph ()    
Max Wind Speed 28 mph    
Max Gust Speed -    
Visibility 5.2 miles    
Events      
Averages and records for this station are not official NWS values.
T = Trace of Precipitation, MM = Missing Value Source: Averaged Metar Reports

Daily Weather History Graph

Daily Weather History Graph

Search for Another Location

Airport or City:

Trip Planner

Search our weather history database for the weather conditions in past years. The results will help you decide how hot, cold, wet, or windy it might be!

Date:

Astronomy

Dec. 12, 2013 Rise Set
Actual Time 6:24 AM EET 4:52 PM EET
Civil Twilight 5:59 AM EET 5:17 PM EET
Nautical Twilight 5:30 AM EET 5:46 PM EET
Astronomical Twilight 5:01 AM EET 6:15 PM EET
Moon 1:29 PM EET (12/12) 1:46 AM EET (12/12)
Length of Visible Light 11h 18m
Length of Day
10h 27m
Waxing Gibbous, 78% of the Moon is Illuminated
Dec 12
Waxing Gibbous
Dec 17
Full
Dec 25
Last Quarter
Jan 1
New
Jan 8
First Quarter

Hourly Weather History & Observations

Time (EET) Temp. Dew Point Humidity Pressure Visibility Wind Dir Wind Speed Gust Speed Precip Events Conditions
12:00 AM 57.2 °F 33.8 °F 41% 29.95 in 3.7 mi NNW 26.5 mph - N/A   Scattered Clouds
1:00 AM 55.4 °F 33.8 °F 44% 29.95 in 3.7 mi NNW 27.6 mph - N/A   Scattered Clouds
2:00 AM 53 °F 32 °F 32% 29.97 in 4 mi NW 23.0 mph - -   Blowing Sand
2:00 AM 53.6 °F 32.0 °F 44% 29.95 in 3.7 mi NW 23.0 mph - N/A   Scattered Clouds
3:00 AM 51.8 °F 33.8 °F 50% 29.98 in 5.0 mi NW 16.1 mph - N/A   Scattered Clouds
4:00 AM 50.0 °F 33.8 °F 54% 29.95 in 5.0 mi NW 20.7 mph - N/A   Scattered Clouds
5:00 AM 50 °F 33 °F 40% 29.98 in 6 mi NW 17.3 mph - -  
5:00 AM 50.0 °F 33.8 °F 54% 29.98 in - NW 17.3 mph - N/A   Clear
6:00 AM 50.0 °F 32.0 °F 50% 29.98 in - WNW 17.3 mph - N/A   Clear
7:00 AM 50.0 °F 30.2 °F 47% 29.98 in - NW 17.3 mph - N/A   Clear
8:00 AM 52 °F 30 °F 31% 30.01 in 6 mi NW 20.7 mph - -  
8:00 AM 51.8 °F 30.2 °F 44% 30.01 in - NW 20.7 mph - N/A   Clear
9:00 AM 55.4 °F 30.2 °F 38% 30.01 in 3.7 mi NW 27.6 mph - N/A   Unknown
10:00 AM 57.2 °F 30.2 °F 36% 30.04 in 3.7 mi NW 23.0 mph - N/A   Unknown
11:00 AM 58 °F 30 °F 23% 30.03 in 6 mi NW 18.4 mph - -  
11:00 AM 59.0 °F 30.2 °F 34% 30.01 in - NW 18.4 mph - N/A   Clear
12:00 PM 59.0 °F 30.2 °F 34% 30.01 in - NNW 19.6 mph - N/A   Clear
1:00 PM 60.8 °F 26.6 °F 27% 29.98 in - NNW 21.9 mph - N/A   Clear
2:00 PM 60 °F 30 °F 21% 29.99 in 6 mi NNW 26.5 mph - -   Scattered Clouds
2:00 PM 60.8 °F 30.2 °F 31% 29.98 in - NNW 26.5 mph - N/A   Clear
3:00 PM 59.0 °F 30.2 °F 34% 29.98 in 6.2 mi NW 23.0 mph - N/A   Scattered Clouds
4:00 PM 59.0 °F 30.2 °F 34% 30.01 in 6.2 mi NNW 26.5 mph - N/A   Scattered Clouds
5:00 PM 59.0 °F 30.2 °F 34% 30.01 in 6.2 mi NNW 17.3 mph - N/A   Scattered Clouds
6:00 PM 55.4 °F 28.4 °F 36% 30.04 in 6.2 mi NW 13.8 mph - N/A   Scattered Clouds
7:00 PM 55.4 °F 28.4 °F 36% 30.04 in 6.2 mi NW 11.5 mph - N/A   Partly Cloudy
8:00 PM 52 °F 28 °F 28% 30.06 in 6 mi WNW 9.2 mph - -  
8:00 PM 51.8 °F 28.4 °F 41% 30.06 in - WNW 9.2 mph - N/A   Clear
9:00 PM 51.8 °F 30.2 °F 44% 30.06 in - NNW 4.6 mph - N/A   Clear
10:00 PM 53.6 °F 30.2 °F 41% 30.06 in - NW 8.1 mph - N/A   Clear
11:00 PM 51 °F 30 °F 32% 30.06 in 6 mi North 6.9 mph - -  
11:00 PM 51.8 °F 30.2 °F 44% 30.06 in - North 6.9 mph - N/A   Clear